Theta_e
334 329 319 314 309 308 309 311 310 309 311 312 313 313 313 314 314 315 315 315 316 316 317 316 315 312 310 309 308 306 304 303
331 326 320 315 310 310 315 311 310 309 311 312 313 313 313 313 313 313 314 314 316 317 317 317 316 314 310 309 307 304 302 302
328 321 319 312 311 311 313 311 309 310 311 312 312 312 313 312 313 313 313 315 317 317 317 318 317 315 311 309 307 303 301 301
317 316 315 312 311 314 312 311 309 310 311 312 312 312 312 313 313 313 314 316 317 317 317 317 318 316 311 309 307 302 300 300
320 315 314 312 311 315 315 311 310 310 311 311 312 312 312 313 313 313 315 317 318 318 318 317 317 317 311 309 306 302 300 300
316 313 313 315 316 315 312 311 310 310 310 311 311 312 313 312 313 316 317 318 318 318 318 317 317 316 311 309 307 301 300 299
315 315 316 317 315 312 311 311 310 310 311 312 311 312 313 317 318 318 318 318 318 318 318 317 317 316 310 308 304 300 300 299
318 318 317 314 313 310 312 311 311 312 316 320 319 320 320 320 320 320 320 319 319 318 318 317 317 313 309 307 301 300 299 298
318 313 312 311 312 310 312 312 313 319 323 324 323 322 323 322 322 322 320 320 319 318 318 317 314 310 308 303 300 299 298 298
320 317 315 312 310 310 314 314 320 323 324 324 323 322 321 322 323 323 322 321 319 318 317 315 310 309 304 300 299 298 298 298
316 316 317 316 315 313 313 314 318 324 324 321 322 322 321 321 321 323 321 319 318 317 316 311 310 306 302 300 300 298 298 298
321 319 319 319 317 313 313 316 322 324 323 323 322 323 320 319 322 322 320 320 319 317 313 310 308 305 302 302 300 298 298 298
324 324 323 321 316 313 313 317 316 318 324 323 323 322 318 319 321 322 321 319 318 314 310 310 306 306 304 302 301 299 298 298
322 325 324 320 315 313 316 318 320 323 324 325 324 321 318 319 320 321 319 318 315 311 310 307 306 305 303 301 302 300 298 297
322 324 324 324 319 316 316 322 324 325 325 324 324 320 318 320 320 319 318 315 311 311 309 306 305 304 302 303 302 301 298 298
323 323 323 325 325 322 321 322 324 323 323 324 323 319 319 320 320 317 314 312 311 311 307 306 305 305 304 300 296 294 298 298
326 325 325 325 327 327 324 323 323 324 324 324 321 319 319 320 319 315 313 312 311 308 306 306 309 305 302 298 297 294 293 296
327 327 327 327 327 326 325 324 323 323 323 325 323 320 319 319 316 314 312 312 310 307 307 307 306 308 305 301 296 295 296 296
328 327 327 327 327 326 325 323 323 324 325 324 323 321 319 318 315 313 312 311 312 309 309 306 307 304 298 295 293 293 293 292
329 329 328 327 327 326 326 321 322 324 326 324 323 321 320 318 316 314 313 313 312 307 306 306 302 296 293 292 293 293 293 291
Wind_Speed
29 35 32 27 29 27 27 30 31 34 34 33 31 28 27 25 23 21 19 18 16 14 14 14 14 12 11 12 12 12 11 11
37 37 38 40 26 24 23 28 32 33 32 31 29 26 24 22 19 17 15 13 12 13 13 11 12 12 12 13 13 13 13 12
36 42 44 37 27 24 22 25 31 32 30 29 27 25 23 20 16 15 12 11 9 9 9 10 12 13 13 13 13 13 11 10
49 44 42 39 33 25 24 25 27 29 29 27 24 22 20 17 15 12 9 8 7 5 6 7 10 12 13 13 15 13 10 10
38 44 47 45 38 33 30 23 26 28 27 26 24 21 18 16 12 10 9 8 5 2 2 6 9 12 13 15 15 15 13 11
32 39 43 41 38 25 24 22 25 28 27 24 22 19 17 14 12 12 9 6 3 2 2 6 9 12 13 14 15 14 12 11
34 39 40 36 38 23 22 21 25 25 24 23 20 17 15 14 13 9 9 7 5 3 4 6 9 12 13 14 13 12 12 11
36 40 44 34 21 22 23 24 26 25 23 19 17 15 15 13 12 12 10 9 7 4 6 7 11 12 12 13 13 11 11 8
37 30 27 22 19 19 21 23 25 24 21 19 18 17 16 14 14 14 13 10 8 8 8 9 9 10 12 12 11 11 8 4
32 26 22 22 23 21 22 25 24 22 21 22 18 17 17 15 16 14 12 13 11 11 11 9 8 10 11 11 11 10 5 5
30 26 22 21 22 22 23 24 24 22 19 17 18 17 16 14 14 11 13 13 15 13 10 8 8 10 10 11 13 8 4 3
26 24 22 21 22 23 24 25 25 23 21 20 17 16 15 12 14 15 16 17 16 14 11 9 9 9 11 12 11 6 6 6
28 26 24 25 27 27 28 29 28 27 23 21 18 16 15 15 17 18 19 19 16 15 11 9 8 9 10 13 9 7 9 10
30 27 26 25 26 26 28 28 27 26 25 25 23 18 18 18 19 20 21 20 17 14 11 10 7 6 6 10 6 10 9 11
31 30 28 26 26 26 28 28 28 31 28 26 21 20 20 18 19 20 20 18 17 14 13 10 7 7 10 11 6 7 12 13
32 31 30 29 29 28 29 31 32 31 28 24 20 21 21 20 21 21 20 19 17 17 15 12 9 11 14 14 13 14 10 12
30 31 31 31 31 31 31 32 33 31 28 22 21 22 23 24 24 23 21 20 21 18 17 14 17 15 16 15 16 16 16 16
31 31 32 32 31 31 32 31 32 32 31 27 24 25 26 25 25 24 23 23 22 22 20 18 15 19 22 19 15 12 10 12
34 33 32 32 31 30 30 30 35 35 36 28 26 27 27 26 27 27 27 24 23 27 21 15 20 19 16 15 14 14 15 17
34 34 34 32 32 31 30 27 34 35 37 29 25 27 23 25 29 28 24 22 24 22 16 19 15 12 11 13 15 16 16 15
Wind_Direction
171 162 151 147 154 154 152 144 146 147 149 144 140 138 133 131 131 128 127 119 111 105 97 87 78 70 61 47 39 29 25 32
149 153 148 143 145 146 148 146 148 148 149 148 145 141 137 139 138 136 128 122 119 106 92 80 64 57 45 40 31 24 26 29
164 148 140 133 144 142 150 149 145 148 151 150 150 149 148 147 146 142 138 131 117 105 83 62 46 37 27 26 23 25 28 26
138 140 140 144 142 148 147 142 150 154 155 154 155 156 156 155 156 151 142 141 126 99 65 49 31 23 16 13 13 19 22 16
149 143 152 150 159 151 140 162 159 158 160 164 166 165 165 169 158 162 171 154 137 113 49 14 11 8 6 3 4 1 357 357
146 145 146 146 147 156 168 170 171 168 167 170 172 173 173 171 180 180 171 175 215 224 11 354 353 354 353 353 346 347 351 350
148 146 153 150 155 170 174 179 175 173 174 176 177 182 181 186 185 191 202 212 220 246 318 331 335 338 336 335 342 350 348 343
149 162 156 160 172 177 185 187 181 180 179 177 180 185 194 194 205 212 222 225 231 249 285 309 313 316 327 341 342 344 343 341
160 155 163 175 185 192 200 194 188 185 185 192 195 197 203 211 225 232 228 232 242 252 265 283 296 321 337 337 337 339 337 345
176 180 180 181 189 199 200 197 197 194 199 208 204 208 216 221 228 235 245 246 239 245 257 273 295 325 329 326 333 340 345 3
185 192 194 199 204 208 210 207 204 208 212 214 214 219 219 226 241 241 243 244 244 243 252 268 302 321 321 328 337 337 315 312
198 207 209 213 213 212 212 212 212 217 223 222 218 221 221 243 245 232 239 241 239 242 246 267 302 316 321 328 330 303 273 271
208 214 213 215 212 212 214 215 218 222 226 226 227 226 230 247 245 236 236 237 236 235 243 279 295 313 331 330 315 300 278 269
220 219 218 217 216 217 220 220 223 230 236 232 233 222 236 246 243 236 232 229 227 234 255 266 285 311 333 337 323 309 286 285
222 221 221 222 222 220 224 225 232 235 240 237 231 226 239 248 238 230 227 223 227 240 254 259 266 302 314 327 310 296 305 291
225 227 226 227 228 226 230 232 237 245 251 244 234 232 245 245 232 225 223 225 233 246 249 249 279 299 310 315 307 298 298 298
226 230 232 234 234 234 237 241 244 251 255 245 233 239 244 241 229 223 226 231 239 243 245 259 292 304 317 305 304 296 291 285
227 230 232 235 237 237 240 246 250 252 253 250 241 239 239 233 225 226 228 236 243 242 254 270 292 313 303 300 295 280 281 282
232 233 236 238 240 242 244 250 251 251 253 250 247 239 235 233 230 228 231 237 265 255 260 270 298 304 301 299 286 286 295 296
238 238 238 243 247 249 247 255 254 253 254 252 247 246 243 242 235 236 245 251 259 244 261 290 294 295 300 288 293 300 302 297